This is the latest recevied weather packets stored in our database for station/object IU0KRR-10. If no packets are shown the sender has not sent any weather packets the latest 10 day(s).
| Time | Temp. | Humidity | Pressure | Rain* | Wind** | Luminosity | Snow |
|---|---|---|---|---|---|---|---|
| 1787910631 | 29.44° C | 28% | 878.5 hPa | - | - | - | - |
| 1787909730 | 29.44° C | 29% | 878.7 hPa | - | - | - | - |
| 1787908829 | 29.44° C | 29% | 878.7 hPa | - | - | - | - |
| 1787907929 | 28.89° C | 28% | 878.8 hPa | - | - | - | - |
| 1787907028 | 28.89° C | 29% | 878.8 hPa | - | - | - | - |
| 1787906202 | 28.33° C | 29% | 879 hPa | - | - | - | - |
| 1787906127 | 28.33° C | 29% | 879 hPa | - | - | - | - |
| 1787905227 | 28.33° C | 29% | 879.1 hPa | - | - | - | - |
| 1787904373 | 27.78° C | 30% | 878.8 hPa | - | - | - | - |
| 1787904326 | 27.78° C | 30% | 878.8 hPa | - | - | - | - |
| 1787903426 | 27.78° C | 31% | 878.9 hPa | - | - | - | - |
| 1787902525 | 27.22° C | 32% | 879.2 hPa | - | - | - | - |
| 1787901624 | 26.67° C | 34% | 879.2 hPa | - | - | - | - |
| 1787900724 | 26.11° C | 34% | 879 hPa | - | - | - | - |
| 1787899988 | 26.11° C | 35% | 878.8 hPa | - | - | - | - |
| 1787899824 | 26.11° C | 35% | 878.8 hPa | - | - | - | - |
| 1787899031 | 26.11° C | 36% | 878.6 hPa | - | - | - | - |
| 1787898924 | 26.11° C | 36% | 878.6 hPa | - | - | - | - |
| 1787898023 | 25° C | 39% | 878.8 hPa | - | - | - | - |
| 1787897122 | 24.44° C | 41% | 878.9 hPa | - | - | - | - |
| 1787896220 | 23.89° C | 41% | 878.9 hPa | - | - | - | - |
| 1787895381 | 23.33° C | 47% | 879 hPa | - | - | - | - |
| 1787895323 | 23.33° C | 47% | 879 hPa | - | - | - | - |
| 1787894419 | 23.33° C | 50% | 879 hPa | - | - | - | - |
| 1787893517 | 23.33° C | 47% | 878.9 hPa | - | - | - | - |
* Rain since midnight (hover to see other rain measurements)
** Current wind speed in m/s (hover to see current wind gust speed)